#timestamp,LO_Frequency,Hit,StdDev 
1698811215.8,286047000.5,N
1698811235.6,286047000.7,N
1698811255.5,286047000.0,N
1698811275.3,286047000.8,N
1698811295.1,286047000.9,N
1698811315.9,286047001.0,N
1698811335.7,286046998.5,N
1698811355.5,286047000.6,N
1698811375.4,286047001.1,N
1698811395.2,286047001.2,N
1698811415.1,286046999.0,N
1698811416.0,286046999.0,N
1698811435.8,286046996.8,N
1698811455.6,286046996.5,N
1698811475.5,286046998.7,N
1698811495.3,286046998.7,N
1698811515.1,286046996.5,N
1698811535.9,286046999.0,N
1698811555.7,286046997.3,N
1698811575.6,286046997.0,N
1698811595.4,286046999.6,N
1698811615.2,286046997.0,N
1698811635.1,286046996.9,N
1698811636.0,286046996.9,N
1698811655.8,286046999.1,N
1698811675.6,286046997.7,N
1698811695.5,286046995.5,N
1698811715.3,286046995.4,N
1698811735.2,286046998.0,N
1698811755.9,286046996.7,N
1698811775.7,286046997.1,N
1698811795.6,286046996.9,N
1698811815.4,286046997.5,N
1698811835.2,286046996.4,N
1698811855.1,286046995.1,N
1698811856.0,286046995.1,N
1698811875.8,286046996.1,N
1698811895.7,286046995.5,N
1698811915.5,286046995.3,N
1698811935.3,286046993.8,Y
1698811955.2,286046997.2,P
1698811975.0,286046999.2,P
1698811975.9,286046999.2,N
1698811995.8,286046997.1,N
1698812015.6,286046997.8,N
1698812035.4,286046995.0,Y
1698812055.3,286046999.0,P
1698812075.1,286047001.2,N
1698812095.8,286047000.2,N
1698812115.7,286047000.9,N
1698812135.5,286047000.1,N
1698812155.4,286047001.0,N
1698812175.2,286047000.0,N
1698812195.0,286047000.0,N
1698812195.9,286047000.0,N
1698812215.8,286047001.0,N
1698812235.6,286046998.2,N
1698812255.4,286046998.2,N
1698812275.3,286047001.0,N
1698812295.1,286046998.8,N
1698812315.9,286047000.3,N
1698812335.7,286046998.2,N
1698812355.5,286046998.3,N
1698812375.4,286046998.8,N
1698812395.2,286046998.8,N
1698812415.0,286046998.4,N
1698812415.9,286046998.4,N
1698812435.8,286046998.4,N
1698812455.6,286047001.2,N
1698812475.5,286046998.8,N
1698812495.3,286046998.3,N
1698812515.1,286047001.2,N
1698812535.9,286046998.2,N
1698812555.7,286047001.1,N
1698812575.6,286046998.5,N
1698812595.4,286046998.6,N
1698812615.2,286046998.9,N
1698812635.1,286046998.2,N
1698812636.0,286046998.2,N
1698812655.8,286046999.5,N
1698812675.6,286046997.3,N
1698812695.5,286046999.6,N
1698812715.3,286046999.5,N
1698812735.2,286046996.5,Y
1698812755.0,286046998.5,P
1698812755.9,286046998.5,P
1698812775.7,286047001.2,P
1698812795.6,286046999.1,N
1698812815.4,286046996.8,Y
1698812835.3,286046998.4,P
1698812855.1,286046996.7,P
1698812875.8,286046997.1,N
1698812895.7,286046996.5,Y
1698812915.5,286046998.5,P
1698812935.4,286046999.9,N
1698812955.2,286047002.6,P
1698812975.0,286047002.7,N
1698812975.9,286047002.7,N
1698812995.8,286047002.8,N
1698813015.6,286047002.2,N
1698813035.5,286047002.0,N
1698813055.3,286047001.6,N
1698813075.1,286047003.6,N
1698813095.9,286047004.2,N
1698813115.7,286047003.9,N
1698813135.5,286047003.2,N
1698813155.4,286047001.4,N
1698813175.2,286047002.0,N
1698813195.1,286047001.5,N
1698813196.0,286047001.5,N
1698813215.8,286047001.5,N
1698813235.6,286047001.6,N
1698813255.5,286047004.4,N
1698813275.3,286047002.1,N
1698813295.1,286047000.5,N
1698813315.9,286046998.3,N
1698813335.7,286046998.2,N
1698813355.6,286047000.2,N
1698813375.4,286047000.1,N
1698813395.2,286047000.6,N
1698813415.1,286046998.2,N
1698813416.0,286046998.2,N
1698813435.8,286046998.5,N
1698813455.6,286047000.7,N
1698813475.5,286046998.5,N
1698813495.3,286047001.1,N
1698813515.2,286047000.8,N
1698813535.9,286047000.0,N
1698813555.7,286047001.1,N
1698813575.6,286047001.0,N
1698813595.4,286047000.0,N
1698813615.2,286046999.8,N
1698813635.1,286047002.7,N
1698813636.0,286047002.7,N
1698813655.8,286047002.4,N
1698813675.7,286046999.7,N
1698813695.5,286047000.4,N
1698813715.3,286047002.4,N
1698813735.2,286047002.7,N
1698813755.0,286047002.6,N
1698813755.9,286047002.6,N
1698813775.7,286047001.6,N
1698813795.6,286047002.4,N
1698813815.4,286047002.1,N
1698813835.3,286047001.5,N
1698813855.1,286047003.7,N
1698813875.8,286047004.1,N
1698813895.7,286047005.8,Y
1698813915.5,286047003.2,P
1698813935.4,286047003.5,P
1698813955.2,286047004.0,P
1698813975.0,286047001.4,N
1698813975.9,286047001.4,N
1698813995.8,286047003.5,N
1698814015.6,286047003.3,N
1698814035.4,286047005.6,Y
1698814055.3,286047002.7,P
1698814075.1,286047001.5,P
1698814095.9,286047001.9,P
1698814115.7,286047002.2,Y
1698814135.5,286046998.5,P
1698814155.4,286046998.5,N
1698814175.2,286047001.2,N
1698814195.0,286047000.9,N
1698814196.0,286047000.9,N
1698814215.8,286047000.3,N
1698814235.6,286047002.1,N
1698814255.5,286046999.9,N
1698814275.3,286047002.8,N
1698814295.1,286047002.3,N
1698814315.9,286047002.4,N
1698814335.7,286047001.9,N
1698814355.5,286047002.0,N
1698814375.4,286047002.6,N
1698814395.2,286047002.1,N
1698814415.1,286047001.7,N
1698814416.0,286047001.7,N
1698814435.8,286047001.3,N
1698814455.6,286047001.4,N
1698814475.5,286047003.8,Y
1698814495.3,286047002.0,P
1698814515.2,286047001.7,P
1698814535.9,286047002.1,P
1698814555.7,286047002.3,Y
1698814575.6,286046998.4,P
1698814595.4,286046998.2,N
1698814615.2,286047000.4,N
1698814635.1,286047000.5,N
1698814636.0,286047000.5,N
1698814655.8,286047000.0,N
1698814675.7,286047002.7,N
1698814695.5,286047000.5,N
1698814715.3,286047000.5,N
1698814735.2,286047001.1,N
1698814755.0,286047000.5,N
1698814755.9,286047000.5,N
1698814775.7,286047000.1,N
1698814795.6,286047000.1,N
